Flag for Canada Weather past 2 weeks in Bathurst, New Brunswick, Canada

Now
59 °F

Clear.


Feels Like: 57 °F
Forecast: 56 / 77 °F
Wind: 9 mph from West

Location: Bathurst Airport

Current Time: Jul 30, 2014 at 2:43:42 AM

Latest Report: Jul 30, 2014 at 2:00 AM


Visibility: 15 mi

Pressure: 29.93 "Hg

Humidity: 88%

Dew point: 55 °F

Location of BathurstLocation

Historic Weather in Bathurst — Graph

°F

Bathurst temperature yesterday

Maximum temperature yesterday: 75 °F (at 5:00 PM)
Minimum temperature yesterday: 63 °F (at 10:00 PM)
Average temperature yesterday: 70 °F

Past Weeks' High & Low Weather Summary

 TemperatureHumidityPressure
High90 °F (Jul 23, 2:00 PM)100% (Jul 16, 8:51 AM)30.25 "Hg (Jul 16, 8:51 AM)
Low48 °F (Jul 25, 5:00 AM)32% (Jul 25, 2:00 PM)29.51 "Hg (Jul 29, 6:00 AM)
Average69 °F74%29.85 "Hg
* Reported Jul 15 1:00 AM — Jul 30 1:00 AM, Bathurst, Weather by CustomWeather, © 2014

Note: Actual official high and low records may vary slightly from our data, if they occured in-between our weather recording intervals... More about our weather records

Advertising

Bathurst weather history for previous 24 hours

 ConditionsComfort  
Time TempWeatherWind HumidityBarometerVisibility
1:00 AM
Jul 30
61 °FClear.6 mph83%29.91 "Hg15 mi
12:00 AM61 °FClear.7 mph83%29.89 "Hg15 mi
11:00 PM
Jul 29
63 °FClear.5 mph77%29.88 "Hg15 mi
10:00 PM63 °FPassing clouds.8 mph83%29.86 "Hg15 mi
9:00 PM68 °FBroken clouds.8 mph69%29.84 "Hg15 mi
8:00 PM70 °FBroken clouds.6 mph69%29.81 "Hg15 mi
7:00 PM73 °FScattered clouds.13 mph61%29.77 "Hg15 mi
6:00 PM75 °FScattered clouds.13 mph54%29.73 "Hg15 mi
5:00 PM75 °FPassing clouds.16 mph54%29.70 "Hg15 mi
4:00 PM73 °FScattered clouds.21 mph65%29.66 "Hg15 mi
3:00 PM73 °FPartly sunny.14 mph83%29.63 "Hg15 mi
2:48 PM72 °FPartly sunny.14 mph83%29.62 "Hg15 mi
2:00 PM68 °FRain showers. Partly sunny.12 mph100%29.61 "Hg8 mi
1:00 PM72 °FPartly sunny.15 mph78%29.59 "Hg15 mi
12:00 PM70 °FScattered clouds.12 mph83%29.59 "Hg15 mi
11:00 AM70 °FPartly sunny.12 mph83%29.57 "Hg15 mi
10:00 AM70 °FPartly sunny.13 mph78%29.55 "Hg15 mi
9:00 AM70 °FPartly sunny.12 mph83%29.53 "Hg15 mi
8:00 AM68 °FPartly sunny.8 mph94%29.53 "Hg15 mi
7:00 AM70 °FPartly sunny.9 mph88%29.52 "Hg15 mi
6:00 AM70 °FLow clouds.9 mph94%29.51 "Hg15 mi
5:00 AM70 °FSprinkles. Mostly cloudy.9 mph94%29.52 "Hg8 mi
4:00 AM70 °FSprinkles. Overcast.6 mph94%29.52 "Hg8 mi
3:00 AM68 °FPassing clouds.8 mph94%29.53 "Hg12 mi
2:00 AM70 °FSprinkles. Mostly cloudy.8 mph94%29.55 "Hg12 mi
Weather by CustomWeather, © 2014

See weather overviewHow to use our weather pages